When you browse on this site, cookies collect data to enhance your experience and personalize the content and advertising you see.
Visit our Privacy Policy to learn more. By continuing to use the site, you agree to this use of cookies and data.
  • Em Portugal
  • Lista de países
  • Para 7 dias
  • Temperatura da água
  • Mapa do tempo
  • Widgets de tempo
  • user-avatar
    Iniciar Sessão

    Previsão horária em Boma

    Hoje, 23 Setembro, Segunda-feira

    Tempo Temperatura Precipitação Vento Pressão Humidade
    00:00 +21°C° 0 mm 0 m/s 700 mmHg 95%
    01:00 +21°C° 0 mm 0 m/s 699 mmHg 96%
    02:00 +20°C° 0.1 mm 0 m/s 699 mmHg 96%
    03:00 +20°C° 0.1 mm 0 m/s 699 mmHg 96%
    04:00 +20°C° 0.1 mm 0 m/s 699 mmHg 96%
    05:00 +20°C° 0.4 mm 0 m/s 700 mmHg 96%
    06:00 +20°C° 0.4 mm 0 m/s 700 mmHg 96%
    07:00 +21°C° 0 mm 0 m/s 701 mmHg 96%
    08:00 +22°C° 0.6 mm 0 m/s 701 mmHg 93%
    09:00 +25°C° 0.6 mm 1 m/s 701 mmHg 89%
    10:00 +26°C° 0.6 mm 1 m/s 702 mmHg 86%
    11:00 +27°C° 0.5 mm 1 m/s 701 mmHg 78%
    12:00 +29°C° 0.5 mm 1 m/s 701 mmHg 70%
    13:00 +31°C° 0.5 mm 1 m/s 701 mmHg 61%
    14:00 +30°C° 0.7 mm 1 m/s 700 mmHg 65%
    15:00 +29°C° 0.7 mm 1 m/s 699 mmHg 68%
    16:00 +27°C° 0.7 mm 0 m/s 699 mmHg 71%
    17:00 +27°C° 0 mm 1 m/s 699 mmHg 77%
    18:00 +26°C° 0 mm 1 m/s 699 mmHg 84%
    19:00 +24°C° 0 mm 1 m/s 700 mmHg 90%
    20:00 +23°C° 0.5 mm 1 m/s 700 mmHg 92%
    21:00 +21°C° 0.5 mm 0 m/s 700 mmHg 95%
    22:00 +20°C° 0.5 mm 0 m/s 700 mmHg 97%
    23:00 +20°C° 0.3 mm 0 m/s 700 mmHg 98%

    Amanhã, 24 Setembro, Terça-feira

    Tempo Temperatura Precipitação Vento Pressão Humidade
    00:00 +20°C° 0.3 mm 0 m/s 700 mmHg 98%
    01:00 +20°C° 0.3 mm 0 m/s 700 mmHg 98%
    02:00 +20°C° 0 mm 0 m/s 700 mmHg 98%
    03:00 +19°C° 0 mm 0 m/s 700 mmHg 98%
    04:00 +19°C° 0 mm 0 m/s 699 mmHg 98%
    05:00 +20°C° 0 mm 0 m/s 700 mmHg 98%
    06:00 +20°C° 0 mm 0 m/s 700 mmHg 97%
    07:00 +20°C° 0 mm 0 m/s 701 mmHg 97%
    08:00 +23°C° 0 mm 0 m/s 701 mmHg 85%
    09:00 +26°C° 0 mm 0 m/s 702 mmHg 73%
    10:00 +30°C° 0 mm 1 m/s 702 mmHg 61%
    11:00 +30°C° 0 mm 0 m/s 701 mmHg 54%
    12:00 +32°C° 0 mm 0 m/s 700 mmHg 47%
    13:00 +34°C° 0 mm 0 m/s 700 mmHg 40%
    14:00 +33°C° 0 mm 0 m/s 699 mmHg 46%
    15:00 +33°C° 0 mm 1 m/s 698 mmHg 52%
    16:00 +32°C° 0 mm 1 m/s 698 mmHg 58%
    17:00 +29°C° 1.5 mm 1 m/s 698 mmHg 69%
    18:00 +27°C° 1.5 mm 1 m/s 698 mmHg 81%
    19:00 +22°C° 1.5 mm 0 m/s 699 mmHg 92%
    20:00 +24°C° 3.1 mm 1 m/s 699 mmHg 94%
    21:00 +23°C° 3.1 mm 1 m/s 699 mmHg 96%
    22:00 +23°C° 3.1 mm 1 m/s 700 mmHg 98%
    23:00 +23°C° 0.6 mm 1 m/s 699 mmHg 98%

    Depois de amanhã, 25 Setembro, Quarta-feira

    Tempo Temperatura Precipitação Vento Pressão Humidade
    00:00 +22°C° 0.6 mm 1 m/s 699 mmHg 97%
    01:00 +20°C° 0.6 mm 0 m/s 699 mmHg 97%
    02:00 +20°C° 0 mm 0 m/s 699 mmHg 97%
    03:00 +20°C° 0 mm 0 m/s 699 mmHg 98%
    04:00 +20°C° 0 mm 0 m/s 699 mmHg 98%
    05:00 +22°C° 0 mm 1 m/s 699 mmHg 98%
    06:00 +22°C° 0 mm 1 m/s 700 mmHg 98%
    07:00 +23°C° 0 mm 1 m/s 701 mmHg 97%
    08:00 +23°C° 0 mm 1 m/s 701 mmHg 94%
    09:00 +24°C° 0 mm 1 m/s 701 mmHg 91%
    10:00 +24°C° 0 mm 1 m/s 701 mmHg 88%
    11:00 +26°C° 0 mm 1 m/s 701 mmHg 81%
    12:00 +28°C° 0 mm 1 m/s 700 mmHg 73%
    13:00 +29°C° 0 mm 1 m/s 699 mmHg 66%
    14:00 +29°C° 0.5 mm 1 m/s 699 mmHg 69%
    15:00 +29°C° 0.5 mm 1 m/s 698 mmHg 72%
    16:00 +29°C° 0.5 mm 1 m/s 698 mmHg 75%
    17:00 +27°C° 1.9 mm 1 m/s 698 mmHg 82%
    18:00 +25°C° 1.9 mm 1 m/s 698 mmHg 89%
    19:00 +21°C° 1.9 mm 0 m/s 699 mmHg 95%
    20:00 +23°C° 1.4 mm 1 m/s 699 mmHg 96%
    21:00 +23°C° 1.4 mm 1 m/s 700 mmHg 96%
    22:00 +23°C° 1.4 mm 1 m/s 700 mmHg 96%
    23:00 +23°C° 0.7 mm 1 m/s 700 mmHg 97%

    26 Setembro, Quinta-feira

    Tempo Temperatura Precipitação Vento Pressão Humidade
    00:00 +22°C° 0.7 mm 1 m/s 700 mmHg 97%
    01:00 +22°C° 0.7 mm 1 m/s 700 mmHg 98%
    02:00 +20°C° 0.8 mm 0 m/s 700 mmHg 98%
    03:00 +20°C° 0.8 mm 0 m/s 700 mmHg 99%
    04:00 +20°C° 0.8 mm 0 m/s 700 mmHg 99%
    05:00 +20°C° 3.6 mm 0 m/s 700 mmHg 99%
    06:00 +20°C° 3.6 mm 0 m/s 701 mmHg 99%
    07:00 +20°C° 3.6 mm 0 m/s 701 mmHg 99%
    08:00 +20°C° 1.3 mm 0 m/s 701 mmHg 98%
    09:00 +21°C° 1.3 mm 0 m/s 702 mmHg 98%
    10:00 +21°C° 1.3 mm 0 m/s 702 mmHg 97%
    11:00 +22°C° 0.2 mm 0 m/s 701 mmHg 94%
    12:00 +24°C° 0.2 mm 1 m/s 700 mmHg 92%
    13:00 +25°C° 0.2 mm 1 m/s 700 mmHg 89%
    14:00 +26°C° 0.1 mm 1 m/s 700 mmHg 82%
    15:00 +27°C° 0.1 mm 1 m/s 699 mmHg 75%
    16:00 +28°C° 0.1 mm 1 m/s 699 mmHg 68%
    17:00 +26°C° 0 mm 1 m/s 699 mmHg 76%
    18:00 +23°C° 0 mm 0 m/s 699 mmHg 83%
    19:00 +21°C° 0 mm 0 m/s 700 mmHg 90%
    20:00 +21°C° 0.1 mm 0 m/s 700 mmHg 92%
    21:00 +21°C° 0.1 mm 0 m/s 700 mmHg 94%
    22:00 +20°C° 0.1 mm 0 m/s 701 mmHg 95%
    23:00 +20°C° 0 mm 0 m/s 701 mmHg 96%

    27 Setembro, Sexta-feira

    Tempo Temperatura Precipitação Vento Pressão Humidade
    00:00 +20°C° 0 mm 0 m/s 700 mmHg 96%
    01:00 +22°C° 0 mm 1 m/s 700 mmHg 97%
    02:00 +22°C° 0 mm 1 m/s 700 mmHg 97%
    03:00 +22°C° 0 mm 1 m/s 700 mmHg 97%
    04:00 +22°C° 0 mm 1 m/s 700 mmHg 97%
    05:00 +22°C° 0.2 mm 1 m/s 701 mmHg 97%
    06:00 +20°C° 0.2 mm 0 m/s 701 mmHg 97%
    07:00 +20°C° 0.2 mm 0 m/s 701 mmHg 97%
    08:00 +21°C° 0 mm 0 m/s 702 mmHg 91%
    09:00 +23°C° 0 mm 0 m/s 702 mmHg 86%
    10:00 +26°C° 0 mm 1 m/s 702 mmHg 80%
    11:00 +26°C° 0.9 mm 1 m/s 702 mmHg 80%
    12:00 +27°C° 0.9 mm 1 m/s 701 mmHg 79%
    13:00 +27°C° 0.9 mm 1 m/s 700 mmHg 79%
    14:00 +27°C° 0.1 mm 1 m/s 700 mmHg 81%
    15:00 +24°C° 0.1 mm 0 m/s 700 mmHg 83%
    16:00 +23°C° 0.1 mm 0 m/s 699 mmHg 85%
    17:00 +23°C° 0.1 mm 0 m/s 699 mmHg 88%
    18:00 +24°C° 0.1 mm 1 m/s 700 mmHg 90%
    19:00 +23°C° 0.1 mm 1 m/s 700 mmHg 93%
    20:00 +23°C° 0 mm 1 m/s 700 mmHg 94%
    21:00 +23°C° 0 mm 1 m/s 700 mmHg 94%
    22:00 +22°C° 0 mm 1 m/s 701 mmHg 95%
    23:00 +22°C° 0 mm 1 m/s 701 mmHg 96%

    28 Setembro, Sábado

    Tempo Temperatura Precipitação Vento Pressão Humidade
    00:00 +22°C° 0 mm 1 m/s 700 mmHg 97%
    01:00 +19°C° 0 mm 0 m/s 700 mmHg 99%
    02:00 +21°C° 0 mm 1 m/s 700 mmHg 98%
    03:00 +21°C° 0 mm 1 m/s 700 mmHg 98%
    04:00 +21°C° 0 mm 1 m/s 700 mmHg 97%
    05:00 +21°C° 0 mm 1 m/s 700 mmHg 96%
    06:00 +22°C° 0 mm 1 m/s 701 mmHg 96%
    07:00 +22°C° 0 mm 1 m/s 701 mmHg 95%
    08:00 +23°C° 0 mm 1 m/s 701 mmHg 90%
    09:00 +24°C° 0 mm 1 m/s 701 mmHg 85%
    10:00 +25°C° 0 mm 1 m/s 701 mmHg 80%
    11:00 +27°C° 0 mm 1 m/s 701 mmHg 73%
    12:00 +28°C° 0 mm 1 m/s 700 mmHg 66%
    13:00 +30°C° 0 mm 1 m/s 699 mmHg 59%
    14:00 +30°C° 0.2 mm 1 m/s 699 mmHg 60%
    15:00 +30°C° 0.2 mm 1 m/s 698 mmHg 60%
    16:00 +30°C° 0.2 mm 1 m/s 697 mmHg 61%
    17:00 +28°C° 1.6 mm 1 m/s 698 mmHg 72%
    18:00 +25°C° 1.6 mm 1 m/s 698 mmHg 84%
    19:00 +23°C° 1.6 mm 1 m/s 698 mmHg 95%
    20:00 +23°C° 0.9 mm 1 m/s 699 mmHg 95%
    21:00 +23°C° 0.9 mm 1 m/s 699 mmHg 95%
    22:00 +23°C° 0.9 mm 1 m/s 700 mmHg 96%
    23:00 +22°C° 1 mm 1 m/s 700 mmHg 96%
    Mostrar mais